Theta_e
324 329 331 337 337 339 344 344 351 354 353 351 352 353 352 350 351 350 349 349 348 348 346 347 346 346 347 347 347 348 348 349 349 349 348 347 346 347 348 349 352 352 350 350
327 328 330 331 333 335 343 344 350 347 345 347 351 352 354 351 350 349 349 349 349 348 347 347 347 347 347 348 348 348 348 348 348 349 348 347 348 346 347 350 351 350 348 349
325 328 327 329 330 332 334 337 345 345 348 344 344 354 354 352 350 349 348 347 347 348 347 348 348 347 347 348 349 347 348 349 348 349 349 351 350 349 347 350 349 349 350 350
326 326 328 329 331 332 334 332 340 343 346 343 344 353 347 354 353 353 351 350 347 347 347 347 347 348 348 348 349 348 350 349 349 350 350 349 346 346 345 347 348 350 349 351
325 325 325 326 329 329 334 336 341 342 345 344 348 349 353 354 359 355 352 351 348 347 346 347 347 347 347 348 348 348 351 350 347 347 350 347 346 347 347 347 351 349 352 353
323 322 324 325 327 325 336 340 343 345 345 345 345 348 347 357 353 355 352 350 350 346 345 345 345 346 348 347 348 348 350 350 349 350 347 347 345 348 346 348 349 348 348 349
323 323 325 329 330 327 337 341 346 345 345 344 344 350 343 344 349 350 351 350 349 348 345 345 347 347 348 348 348 347 349 351 352 350 348 348 349 348 350 350 349 348 348 347
324 324 328 332 331 331 332 335 335 338 339 342 344 348 345 342 342 347 347 349 347 349 345 345 346 347 348 348 348 348 349 351 351 351 351 351 348 348 345 346 345 347 347 347
328 325 326 333 333 335 335 338 332 336 339 340 340 342 341 340 343 345 345 349 348 348 346 345 345 347 348 348 348 348 349 351 351 350 351 351 348 347 349 348 350 348 349 348
330 329 325 327 333 335 339 336 336 334 347 341 343 344 342 341 346 343 346 346 349 348 346 345 346 347 347 348 349 350 350 352 352 349 350 350 350 351 351 348 349 349 350 351
329 329 329 328 332 334 335 338 337 341 347 344 341 340 346 346 352 348 344 346 348 349 348 346 346 346 347 347 348 350 350 352 352 352 349 349 350 350 351 350 351 351 351 349
329 328 329 328 329 329 332 334 336 337 338 336 336 336 350 353 350 349 342 343 345 346 347 346 345 346 347 348 349 350 350 351 352 351 351 351 351 351 349 349 350 351 353 354
328 328 329 329 329 331 332 335 334 331 331 333 333 336 349 351 352 351 347 344 346 346 345 345 346 347 347 349 350 351 351 351 351 351 351 351 352 351 349 349 351 351 353 354
326 328 329 330 331 331 334 336 337 333 331 329 329 330 341 351 353 351 351 350 348 348 348 347 348 346 347 349 351 351 352 352 352 352 351 351 352 352 351 351 352 353 354 354
326 327 328 327 327 329 330 336 336 337 333 335 333 335 333 346 351 350 349 350 350 348 347 349 347 348 350 350 351 352 352 353 352 353 353 353 353 353 353 352 353 353 353 354
326 327 327 326 326 329 329 332 335 337 339 339 340 344 347 347 347 349 348 349 351 351 349 347 347 348 349 351 351 351 352 353 354 354 354 354 355 355 353 353 354 353 354 355
325 324 327 325 330 330 334 332 333 334 340 340 341 348 348 349 350 346 345 345 345 347 351 349 348 349 350 350 351 350 352 355 353 355 355 355 356 356 355 354 353 354 354 354
324 327 327 327 328 332 330 335 335 338 338 341 343 345 347 349 344 342 341 341 340 339 344 350 348 348 348 348 350 352 352 355 354 353 353 354 354 355 354 354 354 354 354 354
328 329 328 329 327 326 328 331 334 337 334 338 343 347 347 345 343 343 339 337 337 336 337 346 349 350 349 350 351 353 352 350 352 353 353 354 354 354 354 354 354 352 352 351
328 328 330 329 332 330 332 333 333 335 339 335 343 346 346 345 352 349 338 334 335 335 335 343 344 343 348 351 351 351 351 352 352 351 347 347 347 345 347 346 346 346 345 343
328 330 329 329 332 329 330 331 333 336 337 341 343 345 345 348 345 340 336 334 333 335 335 340 340 340 340 345 346 345 343 344 345 346 346 343 342 342 343 344 343 343 343 342
326 326 327 328 330 330 331 331 335 338 338 339 343 343 343 342 338 335 333 333 332 333 333 336 338 341 340 341 345 345 345 344 345 345 345 345 342 341 341 340 339 337 338 337
328 327 331 327 327 332 331 332 333 334 338 339 340 341 341 340 339 337 334 333 332 332 331 330 334 336 338 339 340 337 338 341 340 341 338 339 339 338 338 337 335 333 334 331
328 330 328 333 327 329 330 330 332 333 334 336 338 340 338 338 337 337 336 336 335 331 330 331 330 330 330 331 332 333 336 336 335 333 332 330 334 334 334 333 330 330 328 327
328 331 329 328 327 328 330 332 334 333 334 337 339 337 337 337 337 337 336 336 335 334 331 331 330 329 328 329 328 329 332 332 330 327 326 328 328 329 329 328 324 324 326 324
328 325 328 325 324 327 333 332 334 335 335 336 336 337 336 335 336 334 334 331 332 332 332 331 330 328 328 330 331 329 327 328 328 326 325 326 325 325 325 324 322 324 324 324
Wind_Speed
10 9 11 12 5 4 2 7 10 10 9 5 6 8 6 8 9 14 14 17 16 15 16 17 16 16 16 16 16 15 13 13 14 13 12 11 11 8 7 6 7 5 4 3
9 12 6 3 6 3 4 3 10 8 4 3 8 6 9 11 8 12 17 15 15 16 15 16 17 17 18 17 17 17 15 15 15 14 12 11 11 9 8 8 6 5 4 3
10 6 7 9 9 9 7 4 6 4 7 4 3 8 8 5 9 14 16 17 16 16 16 16 18 18 18 19 18 18 18 15 16 13 14 10 10 9 9 9 8 7 5 4
5 6 9 8 9 9 11 5 4 7 9 5 3 2 1 12 15 17 19 16 16 17 17 17 20 20 20 19 19 18 18 16 14 14 14 15 14 12 10 11 9 8 7 5
7 10 8 9 11 7 5 4 6 5 3 6 1 5 7 7 10 17 19 19 17 19 19 17 20 22 20 19 20 20 19 17 15 14 13 15 13 10 10 10 9 8 7 6
1 2 5 3 3 9 4 6 5 6 5 8 1 7 2 7 14 18 16 23 19 17 18 18 21 21 21 20 19 19 20 20 19 14 14 15 13 11 12 12 11 10 9 8
7 11 6 7 7 9 13 13 7 7 7 4 3 6 5 1 7 17 23 23 24 19 18 17 16 19 21 22 21 20 20 21 20 17 16 16 14 14 12 12 12 10 10 9
3 10 12 10 11 8 14 14 7 7 4 3 4 4 4 4 6 14 11 21 19 23 20 17 19 22 23 22 22 21 21 21 20 19 17 14 13 15 16 16 13 13 11 9
3 4 5 5 5 11 11 9 11 8 6 5 3 6 9 2 8 8 9 17 20 23 21 19 22 23 23 23 23 23 22 21 20 21 19 16 15 15 14 12 14 14 11 8
4 5 6 8 7 9 12 6 9 9 5 5 5 3 6 6 4 8 8 12 21 25 22 20 20 22 23 24 23 21 22 22 21 21 20 18 17 16 15 12 13 12 11 12
7 6 9 5 9 6 8 11 12 6 8 1 4 4 6 1 2 3 6 9 11 20 17 17 20 22 23 24 24 23 22 21 22 22 21 20 18 17 16 15 16 15 13 14
4 6 8 6 6 5 12 11 15 9 10 5 5 0 4 4 1 7 10 5 2 12 18 14 21 23 22 23 23 24 23 23 23 22 22 20 19 17 17 17 16 15 15 12
4 4 8 13 10 8 8 7 11 11 15 10 6 1 4 7 7 4 6 5 7 9 10 11 9 20 22 24 24 24 23 23 22 22 22 21 20 19 19 18 18 17 15 14
3 8 8 12 7 8 4 8 7 13 11 11 9 13 5 4 8 6 4 6 6 13 15 10 19 19 23 23 25 25 23 22 21 21 21 22 22 21 19 17 17 16 15 14
5 10 6 12 10 9 10 10 7 12 10 9 4 8 5 3 1 4 3 4 3 8 11 13 17 19 23 22 22 23 22 22 21 21 20 20 18 18 18 17 16 16 16 14
3 7 7 12 11 11 13 12 10 9 7 11 6 9 2 2 4 2 5 7 7 2 6 8 14 13 18 19 18 19 19 20 19 19 19 18 17 17 18 17 16 16 16 14
6 8 6 10 3 8 11 15 13 12 6 9 10 6 4 4 3 3 4 7 7 9 2 5 8 8 10 15 14 18 15 15 17 14 13 13 15 17 18 17 17 17 17 15
8 7 6 9 5 11 2 5 6 9 9 8 11 5 3 4 5 4 4 5 5 6 8 3 4 9 5 11 15 11 12 13 14 13 14 11 14 17 13 17 18 17 16 15
4 7 7 7 10 8 7 5 7 9 12 7 7 3 3 3 5 3 4 5 4 5 6 5 5 8 9 5 7 9 6 10 5 10 10 14 15 15 14 15 14 10 9 9
3 5 7 8 7 8 5 7 1 4 11 10 5 4 5 4 7 6 5 4 4 6 6 8 12 14 13 12 14 16 15 13 13 11 10 9 9 9 8 13 17 15 12 9
5 5 8 8 7 8 4 2 2 7 2 5 6 6 7 5 6 5 5 4 4 5 6 11 13 14 13 14 19 18 19 14 11 10 9 7 5 4 4 10 10 11 14 13
5 4 5 2 5 9 4 3 8 5 2 6 7 6 5 7 6 6 3 4 7 6 8 9 11 12 12 10 13 15 13 11 11 12 10 8 7 7 9 1 4 6 15 13
6 5 5 3 6 2 1 7 3 6 6 1 6 5 8 9 9 6 4 4 7 8 9 9 12 12 12 12 12 14 14 16 14 11 11 11 9 10 11 9 9 12 11 10
7 4 5 3 5 6 6 9 9 11 8 4 5 11 11 9 9 8 6 6 8 10 11 12 14 14 15 11 11 12 13 11 11 11 8 9 10 12 11 11 9 10 9 10
4 8 8 9 12 6 9 7 5 8 7 6 9 10 10 11 11 9 7 7 9 11 13 13 13 14 14 15 14 11 12 12 12 13 12 13 13 14 13 11 8 8 8 7
7 10 8 8 6 4 3 5 4 5 8 8 9 11 12 12 11 11 9 9 9 11 12 14 15 16 14 14 15 14 13 15 20 19 15 15 15 15 14 13 12 10 8 7
Wind_Direction
197 213 208 197 51 36 82 85 88 101 149 114 162 185 224 196 191 257 212 193 191 195 176 177 185 180 180 181 179 184 174 174 176 179 179 172 170 165 159 156 146 129 122 107
181 223 115 195 179 187 173 133 99 106 144 210 174 155 186 190 205 231 234 198 207 193 185 181 186 183 187 189 188 187 185 182 187 189 188 184 174 172 165 161 163 149 135 142
209 137 154 196 189 217 212 252 156 75 160 149 156 163 169 203 190 225 245 233 205 201 189 184 189 189 192 189 192 189 190 193 193 197 191 187 176 171 177 173 175 173 167 160
220 131 200 208 221 231 248 176 182 155 237 23 325 290 244 175 200 213 216 225 221 212 201 187 190 194 195 192 193 193 193 190 195 191 190 191 192 188 191 188 186 183 180 174
112 186 192 220 234 219 298 162 207 223 268 260 132 258 130 165 201 211 220 225 232 211 206 202 192 194 197 190 192 192 194 190 193 202 191 185 201 188 186 183 176 186 184 192
216 142 241 291 176 233 148 168 172 230 270 244 137 289 180 172 205 193 221 223 230 234 207 207 201 191 195 190 192 193 192 197 201 201 201 207 200 196 186 183 180 186 191 202
166 195 170 224 181 174 198 186 195 222 205 296 126 264 43 338 191 188 191 214 225 219 224 201 204 193 192 190 192 195 193 199 205 206 207 212 216 210 205 194 201 195 203 210
256 177 189 184 233 190 213 227 259 247 233 227 141 242 78 267 264 187 215 203 206 219 223 200 201 197 195 194 193 195 194 196 203 212 213 214 211 210 209 210 219 218 219 218
278 180 167 194 193 238 170 232 264 278 171 280 131 241 245 203 179 179 210 186 206 210 210 203 200 201 196 195 196 196 196 200 201 203 209 209 210 218 221 217 216 222 222 227
64 262 169 131 221 238 263 274 213 232 222 227 101 286 292 192 97 153 203 248 197 202 210 201 200 201 199 197 196 198 198 199 203 204 205 213 219 218 226 224 225 227 228 236
309 269 150 186 210 225 184 231 245 127 309 138 216 77 18 44 9 174 210 242 195 202 201 211 202 204 205 199 195 198 199 200 202 206 207 211 214 219 223 224 225 227 232 236
34 296 272 237 78 306 286 279 222 236 234 230 327 243 83 60 68 197 168 137 254 240 199 198 206 207 200 203 195 197 199 201 203 204 207 210 212 215 217 220 227 229 234 235
14 252 264 236 178 200 240 209 260 275 286 260 277 133 106 101 94 48 142 99 333 295 247 216 206 211 202 198 198 197 198 203 203 201 203 209 214 215 216 218 220 222 231 236
284 279 277 290 359 337 220 213 245 253 246 250 216 261 144 121 119 107 107 133 200 242 244 213 206 211 205 201 200 199 198 200 203 204 204 207 211 215 218 220 220 221 221 230
276 274 291 283 285 276 273 282 240 256 263 283 21 263 277 207 103 57 33 42 181 220 237 215 208 209 197 199 199 200 199 198 202 204 207 210 211 214 216 217 220 221 224 228
248 282 288 280 264 266 259 241 247 264 278 270 256 275 37 178 185 71 27 15 9 308 200 217 197 197 213 194 199 201 200 201 201 206 212 211 210 210 214 217 221 222 226 229
286 286 268 279 30 278 252 248 237 256 273 283 268 23 163 182 180 46 29 39 9 356 315 197 204 215 200 202 189 190 199 202 201 205 213 221 220 220 212 214 214 224 227 228
267 254 282 275 268 243 35 5 303 282 278 272 280 278 287 67 100 76 44 51 10 357 348 48 169 154 152 199 184 162 181 194 192 197 199 222 232 236 233 218 220 220 224 225
261 274 278 262 255 261 262 210 234 237 252 221 268 196 141 136 134 114 48 41 19 352 333 29 74 110 125 144 130 111 129 193 217 209 206 208 213 205 198 207 213 215 217 217
212 243 263 263 285 267 54 46 324 281 259 225 218 170 175 200 240 102 95 47 33 19 10 57 82 87 100 125 148 163 165 163 182 174 165 175 177 177 199 214 192 191 186 201
216 247 256 256 244 274 82 145 209 237 57 312 198 173 166 225 28 84 92 82 57 51 38 77 82 82 83 104 122 114 110 114 137 140 147 162 174 199 220 231 232 211 196 205
268 278 239 256 262 262 50 171 252 8 328 275 219 187 146 103 112 104 94 77 77 70 72 82 88 79 74 78 101 104 109 121 126 127 125 117 103 110 110 130 208 195 176 175
245 245 326 290 318 61 248 274 286 281 301 320 211 153 128 150 127 128 120 107 89 89 87 85 93 90 81 86 109 118 123 128 119 110 106 117 131 109 104 103 105 112 114 126
205 197 247 266 219 267 267 251 248 248 252 194 159 137 154 135 126 130 132 130 110 95 89 92 84 80 74 78 87 109 119 114 116 102 105 114 115 115 114 120 113 107 114 128
337 153 238 252 261 251 240 245 252 225 234 170 162 170 141 141 152 153 131 110 105 108 108 101 96 87 76 78 81 100 117 123 105 108 106 99 101 103 113 110 101 109 127 135
186 245 233 281 15 278 66 147 159 178 182 168 167 153 153 157 153 144 125 122 120 113 114 111 109 103 100 96 92 89 98 113 114 108 106 109 108 107 109 113 105 102 115 136